[[{"header":{"parameterUnit":"m.s-1","parameterCategory":2,"la1":30.2991,"la2":30.254,"lo1":-89.0895,"lo2":-89.0444,"dy":0.0017,"dx":0.0017,"nx":28,"ny":28,"refTime":"2025-05-20T21:00:00:Z","depth":"0","parameterNumber":2,"parameterNumberName":"U-component_of_CURRENTS"},"data":[0,0,0,0,0,0,0,0,0,0,0,0,0,0,0,0,0,0,0,0,0,0,0,0,0,0,0,0,0,0,0,0,0,0,0,0,0,0,0,0,0,0,0,0,0,0,0,0,0,0,0,0,0,0,0,0,0,0,0.2873,0.2873,0,0.2872,0.2872,0.2871,0.2801,0.28,0.2798,0.2796,0.2723,0.2723,0.2723,0,0,0,0,0,0,0,0,0,0,0,0,0,0.2774,0.2776,0.2872,0.2873,0.2873,0.2872,0.2872,0.2871,0.2802,0.28,0.2798,0.2796,0.2723,0.2723,0.2723,0,0,0,0,0,0,0,0,0,0,0,0,0,0.2798,0.2777,0.2872,0.2839,0.2836,0.2872,0.2872,0.2871,0.2802,0.28,0.2797,0.2795,0.2724,0.2723,0.2722,0.2769,0,0,0.2721,0.272,0,0,0,0,0,0,0,0,0.2797,0.2801,0.2844,0.2841,0.2838,0.2836,0.281,0.2834,0.2803,0.2813,0.2796,0.2793,0.2757,0.2754,0.2758,0.2766,0.2763,0.2721,0.272,0.272,0.272,0,0,0,0,0,0,0,0.2795,0.2801,0.287,0.2844,0.2841,0.2811,0.2812,0.2814,0.2797,0.2812,0.2807,0.2811,0.2754,0.2759,0.2755,0.2762,0.2721,0.272,0.272,0.272,0.2827,0.283,0,0,0,0,0,0,0.2804,0.28,0.287,0.2871,0.2813,0.2815,0.2816,0.2838,0.2798,0.2791,0.2813,0.2808,0.2761,0.2756,0.2752,0.2824,0.272,0.272,0.2719,0.2824,0.2828,0.2831,0,0,0,0,0,0,0.2803,0.2812,0.2871,0.2835,0.284,0.282,0.2845,0.2839,0.2848,0.28,0.279,0.2828,0.2759,0.2753,0.2769,0.2819,0.2719,0.2719,0.282,0.2825,0.2829,0.2954,0,0,0,0,0,0,0.28,0.2811,0.2847,0.2837,0.2843,0.2918,0.2847,0.2841,0.2855,0.2848,0.281,0.28,0.2756,0.277,0.2768,0.2816,0.2718,0.2816,0.2822,0.2828,0.2946,0.2962,0.2976,0,0,0,0,0,0.2797,0.2865,0.285,0.2859,0.2888,0.292,0.2923,0.2895,0.2858,0.2889,0.2852,0.2802,0.2807,0.2772,0.2769,0.2818,0.2813,0.2821,0.2827,0.2939,0.2959,0.2976,0,0,0,0,0,0,0.2844,0.2864,0.2847,0.2917,0.2925,0.2909,0.2941,0.2916,0.2914,0.2901,0.2839,0.283,0.2869,0.2835,0.2798,0.2871,0.2804,0.2811,0.289,0.2909,0.2924,0.2929,0.2718,0,0,0,0,0,0.2872,0.2927,0.2924,0.2983,0.2989,0.2966,0.2979,0.2961,0.295,0.2946,0.292,0.2898,0.2901,0.2894,0.2897,0.2932,0.2916,0.2965,0.2981,0.2994,0.3,0.3041,0.306,0.2855,0.2855,0.2855,0,0,0.2901,0.2926,0.2951,0.2997,0.2995,0.3013,0.2968,0.3001,0.3016,0.2941,0.2967,0.296,0.2927,0.2968,0.2982,0.2938,0.3046,0.3003,0.3014,0.3012,0.3051,0.307,0.3088,0.286,0.2859,0.2858,0,0,0.2976,0.301,0.3063,0.3071,0.3089,0.308,0.3094,0.3093,0.3095,0.3127,0.3079,0.3106,0.3101,0.3094,0.3085,0.3193,0.3136,0.3194,0.3261,0.3303,0.332,0.3334,0.3341,0.3355,0.3189,0.3189,0.319,0,0.3002,0.3064,0.3085,0.3118,0.3121,0.311,0.3132,0.3151,0.3157,0.3173,0.3152,0.3186,0.3164,0.3205,0.3236,0.3228,0.3224,0.3188,0.3322,0.3336,0.3348,0.3351,0.3365,0.3196,0.3195,0.3195,0.3194,0,0.3094,0.3127,0.3161,0.3189,0.321,0.3239,0.3242,0.3278,0.328,0.3287,0.3353,0.3347,0.3355,0.3372,0.3328,0.3412,0.3372,0.3345,0.3269,0.3376,0.3373,0.3385,0.3206,0.3204,0.3202,0.32,0,0,0.3146,0.3211,0.3209,0.3207,0.324,0.3252,0.331,0.3349,0.337,0.3426,0.3469,0.3514,0.3516,0.3508,0.3485,0.3522,0.361,0.347,0.3469,0.3467,0.368,0.3576,0.3577,0.3602,0.3605,0.3608,0.3641,0,0.3186,0.3256,0.3278,0.3302,0.3317,0.3323,0.3361,0.3401,0.3441,0.3492,0.3541,0.3577,0.3564,0.3569,0.3618,0.3604,0.3647,0.3601,0.3584,0.3583,0.347,0.3591,0.3465,0.3478,0.3652,0.3654,0.3656,0,0.324,0.327,0.332,0.3326,0.333,0.3344,0.3384,0.3419,0.3504,0.3539,0.3617,0.3643,0.3718,0.3688,0.376,0.3727,0.3721,0.3719,0.372,0.3584,0.3502,0.3401,0.3493,0.3493,0.3673,0.3672,0.3671,0,0.3246,0.328,0.3319,0.332,0.3346,0.3359,0.3372,0.3437,0.3467,0.3573,0.361,0.3711,0.3741,0.3794,0.3801,0.3783,0.3865,0.383,0.3741,0.3731,0.3601,0.3575,0.368,0.3901,0.39,0.39,0.39,0,0.3281,0.3286,0.3313,0.3321,0.3319,0.3344,0.3367,0.3405,0.3476,0.3515,0.3622,0.3674,0.3771,0.3825,0.3837,0.3824,0.3897,0.3777,0.375,0.364,0.3618,0.3588,0.356,0.3902,0.3901,0.3901,0.3901,0,0.3279,0.332,0.3317,0.3328,0.3327,0.3314,0.3331,0.3349,0.3429,0.3488,0.3526,0.3656,0.3718,0.3791,0.3857,0.3836,0.3758,0.3826,0.3675,0.3629,0.3513,0.3493,0.3336,0.3264,0.3733,0.3731,0.3729,0,0.3297,0.3308,0.3293,0.3272,0.3268,0.3262,0.3258,0.3319,0.3343,0.3464,0.3486,0.359,0.3634,0.3702,0.3694,0.3703,0.3665,0.3596,0.3545,0.3515,0.3476,0.3321,0.3262,0.3426,0.3422,0.3419,0.3416,0,0.3276,0.3267,0.3254,0.321,0.3186,0.3175,0.3179,0.3197,0.3275,0.3316,0.3379,0.3433,0.3498,0.3477,0.35,0.3483,0.3448,0.3522,0.3553,0.33,0.3078,0.2991,0.3381,0.3386,0.3389,0.3391,0.3392,0.3394,0.3224,0.3179,0.3153,0.3101,0.3086,0.307,0.3029,0.3051,0.3061,0.3073,0.3203,0.3197,0.3317,0.3315,0.3286,0.3224,0.3181,0.3192,0.3188,0.3048,0.2925,0.3228,0.3159,0.316,0.3162,0.3163,0.3164,0,0.3114,0.3083,0.3039,0.2964,0.2922,0.2957,0.2947,0.2884,0.2836,0.2883,0.2885,0.2947,0.296,0.3041,0.3061,0.2976,0.282,0.2929,0.2748,0.2724,0.3075,0.3015,0.2836,0.2836,0.2836,0.2836,0.2836,0.2836,0.305,0.2974,0.2942,0.2822,0.2786,0.2677,0.2658,0.2581,0.257,0.249,0.2484,0.2543,0.2803,0.2949,0.2928,0.2848,0.272,0.2527,0.2576,0.2924,0.295,0.2976,0.2921,0.2724,0.2724,0.2126,0.2122,0.2119]},{"header":{"parameterUnit":"m.s-1","parameterCategory":2,"la1":30.2991,"la2":30.254,"lo1":-89.0895,"lo2":-89.0444,"dy":0.0017,"dx":0.0017,"nx":28,"ny":28,"refTime":"2025-05-20T21:00:00:Z","depth":"0","parameterNumber":3,"parameterNumberName":"V-component_of_CURRENTS"},"data":[0,0,0,0,0,0,0,0,0,0,0,0,0,0,0,0,0,0,0,0,0,0,0,0,0,0,0,0,0,0,0,0,0,0,0,0,0,0,0,0,0,0,0,0,0,0,0,0,0,0,0,0,0,0,0,0,0,0,0.0406,0.0406,0,0.0385,0.0384,0.0384,0.0363,0.0363,0.0363,0.0363,0.0331,0.033,0.033,0,0,0,0,0,0,0,0,0,0,0,0,0,0.0338,0.0339,0.0406,0.0406,0.0406,0.0385,0.0384,0.0384,0.0363,0.0363,0.0363,0.0363,0.0331,0.033,0.0329,0,0,0,0,0,0,0,0,0,0,0,0,0,0.0344,0.034,0.0406,0.0395,0.0394,0.0385,0.0384,0.0384,0.0363,0.0363,0.0363,0.0363,0.0332,0.0331,0.0329,0.0321,0,0,0.0325,0.0325,0,0,0,0,0,0,0,0,0.0344,0.0346,0.0397,0.0396,0.0395,0.0379,0.0349,0.0363,0.0363,0.0371,0.0363,0.0363,0.0348,0.0346,0.0337,0.032,0.0319,0.0325,0.0325,0.0324,0.0324,0,0,0,0,0,0,0,0.0344,0.0347,0.0394,0.0397,0.0396,0.0361,0.0362,0.0351,0.0357,0.0371,0.037,0.0373,0.0347,0.0339,0.0337,0.0318,0.0325,0.0324,0.0323,0.0323,0.0292,0.0291,0,0,0,0,0,0,0.0358,0.0347,0.0395,0.0394,0.0372,0.0363,0.0364,0.0382,0.0358,0.0355,0.0373,0.0372,0.0341,0.0338,0.0335,0.034,0.0324,0.0323,0.0322,0.0292,0.0292,0.0291,0,0,0,0,0,0,0.0357,0.0363,0.0396,0.0371,0.0373,0.0365,0.0384,0.0381,0.0377,0.036,0.0356,0.0372,0.0341,0.0337,0.0325,0.0338,0.0322,0.0321,0.0292,0.0292,0.0291,0.0339,0,0,0,0,0,0,0.0355,0.0363,0.0372,0.0373,0.0376,0.04,0.0384,0.0381,0.038,0.0379,0.0359,0.0355,0.034,0.0327,0.0324,0.0336,0.032,0.0292,0.0292,0.0292,0.0337,0.034,0.0343,0,0,0,0,0,0.0353,0.0378,0.0373,0.0378,0.0392,0.0401,0.0398,0.0389,0.038,0.0383,0.0363,0.0356,0.0324,0.0326,0.0322,0.0334,0.0292,0.0292,0.0292,0.0336,0.034,0.0343,0,0,0,0,0,0,0.0358,0.0378,0.0373,0.0404,0.0403,0.0398,0.0399,0.0393,0.0379,0.0377,0.0354,0.035,0.0343,0.0328,0.0331,0.0323,0.0307,0.0306,0.0342,0.0345,0.0348,0.0395,0.0319,0,0,0,0,0,0.0363,0.0385,0.0391,0.0415,0.0414,0.0405,0.0404,0.0403,0.0394,0.0388,0.0374,0.0355,0.0338,0.0334,0.0317,0.0315,0.0298,0.0319,0.0322,0.0324,0.0358,0.0326,0.033,0.0291,0.0291,0.0291,0,0,0.0378,0.0386,0.0402,0.0416,0.0411,0.0428,0.0404,0.0414,0.0432,0.0387,0.0397,0.0364,0.0337,0.0332,0.0329,0.0324,0.0321,0.0324,0.0327,0.036,0.0327,0.033,0.0334,0.0291,0.0291,0.0291,0,0,0.0413,0.0417,0.0443,0.0447,0.0449,0.0445,0.0452,0.045,0.0449,0.0452,0.0419,0.04,0.0378,0.0364,0.0353,0.0362,0.0333,0.0347,0.0406,0.0374,0.0377,0.038,0.0346,0.0346,0.0353,0.0353,0.0353,0,0.0423,0.0463,0.045,0.047,0.0483,0.0459,0.049,0.0486,0.0482,0.0495,0.0465,0.0439,0.0401,0.041,0.0402,0.0373,0.0346,0.0396,0.0379,0.0382,0.0384,0.0348,0.0348,0.0355,0.0355,0.0355,0.0354,0,0.047,0.0505,0.0519,0.0541,0.0546,0.0572,0.0568,0.0577,0.0567,0.057,0.0574,0.0517,0.0514,0.0479,0.0441,0.0442,0.0412,0.0382,0.0376,0.0391,0.0352,0.035,0.0358,0.0358,0.0357,0.0356,0,0,0.0492,0.0546,0.055,0.0583,0.0591,0.0608,0.0636,0.0665,0.0706,0.0676,0.0723,0.0659,0.0637,0.0622,0.0565,0.0525,0.0487,0.0464,0.0461,0.0441,0.0411,0.0404,0.0401,0.0446,0.0447,0.0447,0.0371,0,0.0533,0.0601,0.061,0.0678,0.0716,0.0712,0.0746,0.0767,0.0776,0.0811,0.0764,0.0776,0.069,0.0684,0.0633,0.0532,0.0488,0.0511,0.0392,0.0389,0.039,0.0401,0.0402,0.0336,0.0369,0.0368,0.0368,0,0.0569,0.0618,0.0694,0.0772,0.0786,0.0816,0.0877,0.0909,0.0946,0.0957,0.0965,0.0932,0.0892,0.0804,0.0669,0.0685,0.0563,0.047,0.0464,0.0452,0.0381,0.0328,0.0331,0.0227,0.0365,0.0365,0.0366,0,0.0591,0.0675,0.0744,0.0767,0.0842,0.0878,0.091,0.0957,0.101,0.1058,0.1102,0.1054,0.1034,0.0895,0.0714,0.0687,0.0554,0.0491,0.0374,0.0371,0.0352,0.0347,0.0257,0.0397,0.0397,0.0397,0.0397,0,0.063,0.0687,0.0766,0.0807,0.0897,0.0924,0.1018,0.1054,0.1126,0.1215,0.1181,0.1229,0.1052,0.096,0.0773,0.0587,0.0601,0.0406,0.0361,0.0365,0.0363,0.0255,0.0177,0.0394,0.0395,0.0395,0.0396,0,0.0643,0.0693,0.0789,0.0884,0.0914,0.0976,0.1082,0.1159,0.1217,0.1334,0.1357,0.1352,0.1243,0.1058,0.0833,0.0673,0.0418,0.0407,0.0428,0.0388,0.019,0.0115,0.0016,-0.0039,0.0278,0.0277,0.0277,0,0.0651,0.0705,0.0835,0.0895,0.094,0.1035,0.1109,0.1194,0.1293,0.1414,0.1483,0.1433,0.1418,0.1114,0.0822,0.0534,0.0399,0.0348,0.0299,0.0204,0.0086,0.0063,0.0022,0.0272,0.0272,0.0271,0.0271,0,0.0682,0.0732,0.082,0.0942,0.1032,0.1147,0.1266,0.1362,0.1486,0.1588,0.1698,0.1693,0.1429,0.1168,0.0797,0.058,0.0292,0.0332,0.0224,0.0083,0.0063,-0.0019,0.0293,0.0268,0.0268,0.0269,0.0269,0.0269,0.0698,0.0766,0.0883,0.1005,0.1115,0.1267,0.1385,0.1526,0.1697,0.1873,0.1838,0.1866,0.1509,0.101,0.0701,0.024,0.0243,0.0106,0.0022,0.0011,-0.0032,0.0287,0.0221,0.0221,0.0221,0.0221,0.0221,0,0.0717,0.0809,0.0929,0.1095,0.1235,0.1287,0.15,0.1641,0.1858,0.1974,0.2047,0.1921,0.1442,0.0979,0.0341,0.0004,-0.0112,-0.0156,-0.02,-0.0231,0.004,0.0052,-0.0039,-0.0039,-0.0039,-0.0039,-0.0039,-0.0038,0.0728,0.0848,0.0934,0.1175,0.1296,0.1501,0.164,0.1841,0.1987,0.2162,0.2214,0.2226,0.1965,0.0763,-0.0008,-0.0228,-0.0436,-0.048,-0.0567,-0.0402,-0.0384,-0.0366,-0.0371,-0.0549,-0.0549,-0.0777,-0.078,-0.0782]}],[{"header":{"parameterUnit":"m.s-1","parameterCategory":2,"la1":30.2991,"la2":30.254,"lo1":-89.0895,"lo2":-89.0444,"dy":0.0017,"dx":0.0017,"nx":28,"ny":28,"refTime":"2025-05-20T21:00:00:Z","depth":"2","parameterNumber":2,"parameterNumberName":"U-component_of_CURRENTS"},"data":[0,0,0,0,0,0,0,0,0,0,0,0,0,0,0,0,0,0,0,0,0,0,0,0,0,0,0,0,0,0,0,0,0,0,0,0,0,0,0,0,0,0,0,0,0,0,0,0,0,0,0,0,0,0,0,0,0,0,0.2629,0.2629,0,0.2618,0.2617,0.2617,0.2571,0.257,0.2569,0.2568,0.252,0.2519,0.2519,0,0,0,0,0,0,0,0,0,0,0,0,0,0.2549,0.2551,0.2629,0.2629,0.2629,0.2618,0.2617,0.2617,0.2571,0.257,0.2568,0.2567,0.252,0.2519,0.2519,0,0,0,0,0,0,0,0,0,0,0,0,0,0.2565,0.2552,0.2629,0.2605,0.2603,0.2618,0.2617,0.2617,0.2571,0.257,0.2568,0.2567,0.252,0.2519,0.2519,0.2546,0,0,0.2517,0.2517,0,0,0,0,0,0,0,0,0.2564,0.2568,0.2609,0.2607,0.2604,0.2595,0.2572,0.2592,0.2572,0.2583,0.2568,0.2566,0.2543,0.2541,0.2541,0.2544,0.2542,0.2517,0.2517,0.2517,0.2517,0,0,0,0,0,0,0,0.2563,0.2568,0.2624,0.2609,0.2606,0.2574,0.2575,0.2575,0.257,0.2581,0.2578,0.2578,0.2541,0.2542,0.254,0.2541,0.2517,0.2517,0.2517,0.2516,0.2629,0.2632,0,0,0,0,0,0,0.2572,0.2568,0.2624,0.2624,0.2581,0.2577,0.2578,0.2599,0.2571,0.2566,0.258,0.2576,0.2544,0.254,0.2538,0.2635,0.2517,0.2516,0.2516,0.2626,0.263,0.2633,0,0,0,0,0,0,0.257,0.2578,0.2625,0.2594,0.2598,0.258,0.2604,0.2599,0.2617,0.257,0.2564,0.2604,0.2542,0.2538,0.2563,0.263,0.2516,0.2516,0.2622,0.2627,0.2632,0.2787,0,0,0,0,0,0,0.2569,0.2578,0.2621,0.2596,0.26,0.267,0.2605,0.26,0.2619,0.2615,0.2589,0.2581,0.2541,0.2564,0.2563,0.2627,0.2515,0.2618,0.2624,0.263,0.2778,0.2797,0.2813,0,0,0,0,0,0.2566,0.2645,0.2624,0.2632,0.2653,0.2672,0.2674,0.2652,0.2622,0.2657,0.2629,0.2583,0.2602,0.2567,0.2564,0.263,0.2615,0.2622,0.2629,0.277,0.2793,0.2812,0,0,0,0,0,0,0.2633,0.2647,0.2623,0.2701,0.2696,0.2665,0.2706,0.2676,0.2682,0.268,0.2619,0.2612,0.2668,0.2629,0.259,0.2683,0.2605,0.2612,0.2713,0.2734,0.2751,0.2754,0.2515,0,0,0,0,0,0.2666,0.2734,0.271,0.2775,0.2776,0.274,0.2752,0.2733,0.2721,0.2723,0.2708,0.2693,0.2697,0.2696,0.2704,0.2744,0.2714,0.2788,0.2806,0.2821,0.2824,0.2848,0.2868,0.2658,0.2658,0.2657,0,0,0.2708,0.2727,0.2763,0.2794,0.2785,0.2802,0.2746,0.2781,0.2801,0.2718,0.2773,0.2766,0.2726,0.2781,0.2801,0.2752,0.2869,0.283,0.2843,0.2838,0.2858,0.2878,0.2896,0.2663,0.2662,0.2661,0,0,0.2798,0.2838,0.2898,0.2898,0.2903,0.2891,0.2905,0.2898,0.2908,0.2947,0.2901,0.2935,0.2937,0.2931,0.2918,0.3038,0.2972,0.3045,0.3123,0.3148,0.3165,0.3179,0.3178,0.3191,0.304,0.304,0.3041,0,0.2831,0.2897,0.2919,0.2946,0.2951,0.2931,0.2953,0.2975,0.2983,0.3,0.299,0.303,0.3011,0.3049,0.309,0.308,0.3065,0.3042,0.317,0.3183,0.3195,0.3191,0.3203,0.3049,0.3048,0.3047,0.3046,0,0.2937,0.2972,0.3009,0.3036,0.306,0.309,0.3091,0.3139,0.315,0.3152,0.3228,0.3224,0.3229,0.3253,0.32,0.3284,0.3237,0.32,0.3112,0.3226,0.3214,0.3224,0.3061,0.3058,0.3055,0.3053,0,0,0.2991,0.3067,0.3063,0.3063,0.31,0.3113,0.3188,0.3225,0.325,0.332,0.3363,0.3417,0.3414,0.3401,0.3373,0.3402,0.3486,0.3339,0.3336,0.3331,0.3524,0.3371,0.3366,0.3465,0.3468,0.347,0.3484,0,0.303,0.3103,0.3134,0.3169,0.3186,0.32,0.325,0.3294,0.334,0.3397,0.344,0.3479,0.3468,0.3472,0.3513,0.3483,0.3517,0.3484,0.3419,0.3417,0.3262,0.3375,0.3151,0.3134,0.3493,0.3495,0.3496,0,0.3077,0.3115,0.3169,0.3195,0.3201,0.323,0.3287,0.3329,0.3413,0.345,0.3527,0.3548,0.3619,0.3588,0.3635,0.3609,0.3586,0.3572,0.3571,0.3376,0.3282,0.3078,0.3138,0.3511,0.351,0.3509,0.3508,0,0.3053,0.3118,0.3164,0.3171,0.3216,0.3242,0.3275,0.3347,0.3378,0.3485,0.3521,0.3616,0.3642,0.3674,0.3669,0.3648,0.3704,0.3659,0.3512,0.35,0.3268,0.323,0.3707,0.3707,0.3706,0.3706,0.3706,0,0.3045,0.3068,0.3155,0.3143,0.3188,0.3226,0.3264,0.3317,0.3391,0.3424,0.3533,0.3575,0.3665,0.3707,0.3702,0.3638,0.3732,0.3544,0.3504,0.3315,0.3284,0.3567,0.355,0.3707,0.3707,0.3707,0.3707,0,0.2997,0.3051,0.3074,0.313,0.316,0.3179,0.3241,0.3263,0.3343,0.3396,0.3434,0.3553,0.3583,0.3652,0.3687,0.3636,0.3617,0.357,0.3334,0.3264,0.3386,0.3378,0.3398,0.3393,0.3389,0.3385,0.3382,0,0.2987,0.3001,0.3053,0.3056,0.3077,0.3126,0.315,0.3232,0.3258,0.3361,0.3376,0.3453,0.3453,0.3464,0.342,0.3385,0.3502,0.3151,0.3069,0.3401,0.336,0.3359,0.3356,0.2836,0.2829,0.2823,0.2818,0,0.2939,0.2959,0.2946,0.298,0.2994,0.3037,0.3084,0.31,0.318,0.3195,0.3221,0.3231,0.3234,0.3095,0.3063,0.3014,0.314,0.3022,0.3457,0.2934,0.2868,0.2828,0.2846,0.2766,0.2771,0.2775,0.2778,0.278,0.2897,0.2854,0.2847,0.2865,0.2895,0.2933,0.2899,0.2925,0.2912,0.2877,0.2998,0.289,0.2915,0.2699,0.2616,0.2564,0.2753,0.2668,0.2689,0.2715,0.2632,0.2561,0.2385,0.2388,0.2391,0.2393,0.2395,0,0.2817,0.2773,0.2762,0.2735,0.2731,0.2822,0.2829,0.2725,0.2619,0.2634,0.2581,0.2336,0.2231,0.2261,0.2091,0.2064,0.2062,0.1993,0.2012,0.2066,0.2114,0.2002,0.1587,0.1584,0.1581,0.1579,0,0,0.2755,0.2663,0.2629,0.2579,0.2598,0.2528,0.2504,0.2344,0.2282,0.21,0.2015,0.2122,0.2198,0.187,0.1831,0.1694,0.1861,0.1615,0.2272,0.2351,0.2395,0.2518,0.2408,0,0,0,0,0]},{"header":{"parameterUnit":"m.s-1","parameterCategory":2,"la1":30.2991,"la2":30.254,"lo1":-89.0895,"lo2":-89.0444,"dy":0.0017,"dx":0.0017,"nx":28,"ny":28,"refTime":"2025-05-20T21:00:00:Z","depth":"2","parameterNumber":3,"parameterNumberName":"V-component_of_CURRENTS"},"data":[0,0,0,0,0,0,0,0,0,0,0,0,0,0,0,0,0,0,0,0,0,0,0,0,0,0,0,0,0,0,0,0,0,0,0,0,0,0,0,0,0,0,0,0,0,0,0,0,0,0,0,0,0,0,0,0,0,0,0.0309,0.0309,0,0.0283,0.0283,0.0282,0.0267,0.0267,0.0267,0.0267,0.0238,0.0237,0.0236,0,0,0,0,0,0,0,0,0,0,0,0,0,0.0249,0.025,0.0309,0.0309,0.0309,0.0283,0.0283,0.0282,0.0267,0.0267,0.0267,0.0268,0.0238,0.0237,0.0236,0,0,0,0,0,0,0,0,0,0,0,0,0,0.0251,0.0251,0.0309,0.0301,0.03,0.0283,0.0283,0.0282,0.0267,0.0267,0.0267,0.0268,0.0239,0.0237,0.0236,0.022,0,0,0.0231,0.0231,0,0,0,0,0,0,0,0,0.0251,0.0253,0.0302,0.0302,0.0301,0.0281,0.0251,0.0262,0.0267,0.0276,0.0268,0.0268,0.0254,0.0251,0.0241,0.0218,0.0217,0.0231,0.023,0.023,0.0229,0,0,0,0,0,0,0,0.0251,0.0253,0.0296,0.0302,0.0301,0.0265,0.0267,0.0252,0.0261,0.0275,0.0275,0.0277,0.0253,0.0243,0.024,0.0216,0.0231,0.023,0.0229,0.0228,0.0194,0.0194,0,0,0,0,0,0,0.0266,0.0254,0.0297,0.0295,0.028,0.0267,0.0268,0.0285,0.0261,0.0259,0.0277,0.0276,0.0245,0.0242,0.0239,0.0251,0.023,0.0228,0.0227,0.0194,0.0194,0.0194,0,0,0,0,0,0,0.0265,0.0271,0.0298,0.0275,0.0277,0.0269,0.0287,0.0284,0.0282,0.0263,0.026,0.0279,0.0245,0.0241,0.023,0.0249,0.0228,0.0226,0.0194,0.0194,0.0194,0.0254,0,0,0,0,0,0,0.0264,0.0271,0.0281,0.0277,0.0279,0.0299,0.0286,0.0283,0.0284,0.0283,0.0263,0.026,0.0245,0.0232,0.0228,0.0246,0.0225,0.0194,0.0194,0.0194,0.0252,0.0256,0.0259,0,0,0,0,0,0.0262,0.0287,0.0282,0.0286,0.0296,0.03,0.0297,0.0289,0.0284,0.0286,0.0268,0.0261,0.023,0.0231,0.0226,0.0244,0.0194,0.0194,0.0194,0.025,0.0255,0.0259,0,0,0,0,0,0,0.027,0.0288,0.0282,0.0312,0.0308,0.0299,0.0301,0.0294,0.028,0.0283,0.0259,0.0254,0.0251,0.0234,0.0236,0.0232,0.0212,0.0211,0.0256,0.026,0.0264,0.0311,0.0224,0,0,0,0,0,0.0276,0.03,0.03,0.0323,0.0322,0.0309,0.0308,0.0307,0.0298,0.0292,0.028,0.0263,0.0245,0.0243,0.0225,0.0223,0.0201,0.0231,0.0234,0.0238,0.0271,0.0232,0.0235,0.0194,0.0194,0.0194,0,0,0.0293,0.0299,0.0317,0.0326,0.0319,0.0336,0.0309,0.0319,0.034,0.0291,0.0309,0.0275,0.0245,0.0243,0.0241,0.0235,0.0233,0.0238,0.0241,0.0273,0.0232,0.0236,0.024,0.0194,0.0194,0.0194,0,0,0.033,0.0336,0.0362,0.0364,0.0363,0.0359,0.0366,0.0362,0.0363,0.0368,0.0337,0.0319,0.0298,0.0283,0.0271,0.0285,0.025,0.027,0.0335,0.0295,0.0299,0.0302,0.0263,0.0262,0.0277,0.0277,0.0277,0,0.0342,0.0381,0.0367,0.0386,0.0401,0.0375,0.0407,0.0404,0.0401,0.0415,0.0388,0.0363,0.0325,0.0333,0.0329,0.0298,0.0265,0.0322,0.0302,0.0305,0.0307,0.0266,0.0265,0.028,0.028,0.0279,0.0279,0,0.039,0.0425,0.044,0.0462,0.047,0.0496,0.0494,0.0506,0.0501,0.0502,0.0509,0.0452,0.0447,0.0415,0.0375,0.0375,0.0342,0.0307,0.0296,0.0315,0.027,0.0267,0.0284,0.0283,0.0282,0.0281,0,0,0.0411,0.0467,0.0471,0.0506,0.0518,0.0536,0.057,0.06,0.0644,0.0617,0.0665,0.0605,0.058,0.0564,0.0505,0.0462,0.0422,0.0395,0.0391,0.0369,0.0331,0.0302,0.0296,0.0375,0.0375,0.0375,0.0288,0,0.0451,0.052,0.0531,0.0605,0.0646,0.0646,0.0685,0.0708,0.072,0.0757,0.0709,0.0721,0.0636,0.0629,0.0576,0.0467,0.042,0.0449,0.0308,0.0305,0.0287,0.0294,0.0289,0.0211,0.0285,0.0284,0.0284,0,0.0483,0.0536,0.0614,0.0702,0.0717,0.0753,0.0823,0.0857,0.0895,0.0906,0.0913,0.0878,0.0836,0.0747,0.0601,0.0619,0.0491,0.0394,0.0387,0.035,0.0273,0.0206,0.0203,0.0279,0.0279,0.028,0.028,0,0.0495,0.0592,0.0663,0.069,0.0774,0.0814,0.0856,0.0906,0.096,0.1007,0.105,0.0998,0.0976,0.0828,0.0641,0.0614,0.0467,0.0402,0.0261,0.0256,0.0224,0.0218,0.0298,0.0298,0.0299,0.0299,0.0299,0,0.0522,0.0585,0.0685,0.072,0.0828,0.0861,0.0961,0.1004,0.1077,0.1163,0.1129,0.117,0.099,0.0891,0.0698,0.0489,0.0512,0.029,0.024,0.0242,0.0238,0.0278,0.0277,0.0296,0.0296,0.0297,0.0298,0,0.0519,0.0573,0.0679,0.0792,0.0833,0.0909,0.1031,0.1111,0.1168,0.1281,0.1303,0.129,0.1162,0.0974,0.0736,0.0568,0.0365,0.0278,0.0298,0.0252,0.0161,0.0164,0.0114,0.0112,0.0111,0.011,0.0109,0,0.0518,0.0572,0.0728,0.0797,0.0852,0.0968,0.1052,0.1145,0.1245,0.1353,0.1419,0.1351,0.1302,0.0971,0.0677,0.037,0.034,0.0174,0.012,0.019,0.0145,0.015,0.0155,0.0086,0.0085,0.0084,0.0083,0,0.0541,0.06,0.0693,0.0843,0.0947,0.108,0.1215,0.131,0.1433,0.1516,0.16,0.1561,0.1269,0.0967,0.0579,0.0365,0.0227,0.0145,0.0218,0.0142,0.0159,0.0116,0.0122,0.0076,0.0076,0.0077,0.0077,0.0078,0.0565,0.0639,0.0767,0.0913,0.1037,0.1202,0.1322,0.1453,0.1605,0.1736,0.1698,0.1626,0.1304,0.078,0.0455,0.0138,0.0148,0.0018,0.0022,0.0027,0.0048,0.0063,-0.0035,-0.0035,-0.0035,-0.0035,-0.0034,0,0.0608,0.0696,0.0829,0.1013,0.1162,0.1227,0.1443,0.155,0.1722,0.1777,0.1799,0.1464,0.1122,0.0774,0.0288,-0.0011,-0.0039,-0.0102,-0.0067,-0.0058,-0.005,-0.0032,-0.0137,-0.0138,-0.0139,-0.014,0,0,0.0627,0.0753,0.0838,0.1097,0.1229,0.1438,0.1573,0.1695,0.1776,0.1802,0.1746,0.1625,0.1203,0.0832,0.0429,0.0159,0.0119,0.0094,0.0203,0.03,0.0312,0.004,0.0081,0,0,0,0,0]}],[{"header":{"parameterUnit":"m.s-1","parameterCategory":2,"la1":30.2991,"la2":30.254,"lo1":-89.0895,"lo2":-89.0444,"dy":0.0017,"dx":0.0017,"nx":28,"ny":28,"refTime":"2025-05-20T21:00:00:Z","depth":"4","parameterNumber":2,"parameterNumberName":"U-component_of_CURRENTS"},"data":[0,0,0,0,0,0,0,0,0,0,0,0,0,0,0,0,0,0,0,0,0,0,0,0,0,0,0,0,0,0,0,0,0,0,0,0,0,0,0,0,0,0,0,0,0,0,0,0,0,0,0,0,0,0,0,0,0,0,0.0912,0.0913,0,0.0981,0.0982,0.0983,0.1068,0.1069,0.107,0.1071,0.1166,0.1168,0.1169,0,0,0,0,0,0,0,0,0,0,0,0,0,0.0857,0.0858,0.0912,0.0913,0.0914,0.0981,0.0982,0.0983,0.1068,0.1069,0.107,0.1072,0.1166,0.1167,0.1169,0,0,0,0,0,0,0,0,0,0,0,0,0,0.0901,0.0858,0.0912,0.0962,0.0967,0.0981,0.0982,0.0983,0.1067,0.1069,0.1071,0.1072,0.1165,0.1167,0.1169,0.1149,0,0,0.1176,0.1177,0,0,0,0,0,0,0,0,0.0898,0.0903,0.0954,0.0959,0.0964,0.1016,0.0997,0.1039,0.1067,0.1032,0.1071,0.1073,0.1115,0.1122,0.1134,0.1154,0.1158,0.1176,0.1178,0.1179,0.1179,0,0,0,0,0,0,0,0.0895,0.0901,0.0942,0.0955,0.0961,0.0982,0.099,0.1006,0.1066,0.1035,0.1041,0.1044,0.1119,0.1132,0.1137,0.1159,0.1176,0.1178,0.118,0.1181,0.1332,0.1334,0,0,0,0,0,0,0.088,0.0898,0.094,0.0944,0.0932,0.0981,0.0991,0.0999,0.1065,0.1076,0.1043,0.1048,0.1127,0.1134,0.114,0.13,0.1179,0.1181,0.1182,0.1329,0.1332,0.1335,0,0,0,0,0,0,0.0879,0.0883,0.0937,0.092,0.0928,0.098,0.0989,0.1,0.1053,0.107,0.1082,0.1089,0.1129,0.1137,0.1205,0.1298,0.1182,0.1184,0.1326,0.133,0.1334,0.1504,0,0,0,0,0,0,0.0877,0.0883,0.09,0.0919,0.0929,0.0959,0.0988,0.1,0.1048,0.1057,0.1113,0.1121,0.1131,0.1201,0.1207,0.1299,0.1186,0.1323,0.1328,0.1333,0.1495,0.1514,0.1529,0,0,0,0,0,0.0875,0.0799,0.0901,0.0906,0.0946,0.0959,0.0966,0.101,0.1049,0.1067,0.1128,0.1122,0.1238,0.1205,0.1211,0.1306,0.132,0.1326,0.1332,0.1488,0.151,0.1529,0,0,0,0,0,0,0.0758,0.0803,0.0913,0.0861,0.095,0.0973,0.095,0.1028,0.109,0.1119,0.1146,0.1159,0.1243,0.1242,0.1205,0.1361,0.1281,0.1289,0.1398,0.1418,0.1435,0.1308,0.1187,0,0,0,0,0,0.076,0.0732,0.0835,0.0809,0.084,0.0933,0.0951,0.1029,0.1073,0.1104,0.114,0.1197,0.1263,0.1316,0.1332,0.1424,0.1384,0.1488,0.1506,0.152,0.142,0.153,0.1548,0.1355,0.1355,0.1355,0,0,0.0716,0.073,0.0727,0.0789,0.0841,0.0878,0.0945,0.0987,0.1038,0.1102,0.1143,0.1233,0.1288,0.1389,0.1432,0.1416,0.1558,0.1528,0.1541,0.1429,0.1539,0.1557,0.1574,0.1359,0.1359,0.1358,0,0,0.0575,0.0632,0.0591,0.0663,0.0772,0.0833,0.0864,0.0959,0.1017,0.1098,0.1183,0.1297,0.1367,0.1449,0.1497,0.1601,0.1619,0.1682,0.1706,0.1821,0.1837,0.185,0.1839,0.185,0.1728,0.1728,0.1728,0,0.0563,0.0542,0.0586,0.059,0.066,0.0814,0.0865,0.0911,0.1032,0.111,0.1109,0.1334,0.1355,0.156,0.1591,0.1632,0.1688,0.1643,0.1844,0.1856,0.1867,0.1852,0.1861,0.1737,0.1736,0.1735,0.1734,0,0.0416,0.0466,0.0423,0.0514,0.0576,0.0638,0.0761,0.0846,0.0947,0.1048,0.1247,0.1341,0.1492,0.1568,0.1586,0.1765,0.1775,0.1836,0.1793,0.1897,0.1874,0.1881,0.175,0.1747,0.1744,0.1742,0,0,0.032,0.0339,0.0363,0.0457,0.0591,0.0643,0.0707,0.0869,0.0975,0.111,0.1267,0.1392,0.1538,0.1593,0.1754,0.1834,0.1937,0.188,0.1882,0.186,0.216,0.1968,0.1956,0.2127,0.2129,0.2131,0.2118,0,0.0285,0.0266,0.0307,0.0411,0.0461,0.0637,0.0699,0.0866,0.0993,0.1151,0.1344,0.1523,0.1541,0.1721,0.1802,0.1914,0.1965,0.1927,0.2057,0.2054,0.1872,0.196,0.2137,0.2123,0.2124,0.2125,0.2126,0,0.0203,0.0226,0.0273,0.0458,0.0506,0.0604,0.084,0.0924,0.1146,0.1251,0.1481,0.164,0.1822,0.1819,0.1991,0.2018,0.2038,0.2079,0.2085,0.1815,0.1875,0.1992,0.2138,0.2137,0.2136,0.2135,0.2134,0,0.0132,0.0247,0.0296,0.0356,0.0532,0.0658,0.08,0.1002,0.1103,0.1373,0.1479,0.1754,0.1895,0.2013,0.2033,0.2086,0.2146,0.2249,0.2073,0.2058,0.2158,0.2143,0.229,0.229,0.229,0.229,0.229,0,0.0093,0.0157,0.0304,0.0341,0.0524,0.0673,0.0881,0.1022,0.1243,0.1395,0.1581,0.1735,0.1954,0.2036,0.2068,0.2037,0.2183,0.2004,0.2047,0.2231,0.2225,0.2163,0.2148,0.229,0.229,0.229,0.229,0,-0.0001,0.0064,0.0148,0.0368,0.0476,0.0619,0.0915,0.1042,0.1229,0.1432,0.1535,0.1731,0.1851,0.1954,0.209,0.203,0.2058,0.1999,0.2072,0.2129,0.1884,0.1879,0.1847,0.184,0.1835,0.183,0.1826,0,-0.007,-0.0054,0.0139,0.0256,0.0391,0.0629,0.0791,0.1026,0.1136,0.1423,0.1497,0.1681,0.1809,0.1792,0.1897,0.1921,0.1904,0.1857,0.1926,0.1794,0.1842,0.1846,0.1848,0.1817,0.1815,0.1814,0.1812,0,-0.0133,-0.0083,0.001,0.0195,0.0402,0.0564,0.0814,0.0871,0.1144,0.1307,0.1481,0.1591,0.1661,0.1737,0.1702,0.1739,0.1882,0.1799,0.1813,0.1878,0.1758,0.1811,0.182,0.1792,0.1795,0.1797,0.1798,0,-0.0159,-0.0086,0.0033,0.0229,0.0393,0.0512,0.0627,0.0829,0.0962,0.128,0.1336,0.1523,0.1689,0.1635,0.1636,0.1615,0.1639,0.1602,0.1627,0.165,0.1585,0.1404,0.1324,0,0,0,0,0,-0.0138,-0.0023,0.0102,0.0283,0.0375,0.0486,0.0663,0.0759,0.1002,0.1103,0.1234,0.1339,0.142,0.1458,0.1404,0.1489,0.1582,0.1409,0.1537,0.1682,0.1705,0.1644,0,0,0,0,0,0,-0.0086,0.0018,0.0108,0.0266,0.0363,0.048,0.057,0.071,0.0755,0.1008,0.1034,0.1246,0.1288,0.1466,0.1389,0.1397,0.1441,0.1512,0.1507,0.1669,0.169,0.1708,0.1654,0,0,0,0,0]},{"header":{"parameterUnit":"m.s-1","parameterCategory":2,"la1":30.2991,"la2":30.254,"lo1":-89.0895,"lo2":-89.0444,"dy":0.0017,"dx":0.0017,"nx":28,"ny":28,"refTime":"2025-05-20T21:00:00:Z","depth":"4","parameterNumber":3,"parameterNumberName":"V-component_of_CURRENTS"},"data":[0,0,0,0,0,0,0,0,0,0,0,0,0,0,0,0,0,0,0,0,0,0,0,0,0,0,0,0,0,0,0,0,0,0,0,0,0,0,0,0,0,0,0,0,0,0,0,0,0,0,0,0,0,0,0,0,0,0,0.0131,0.0131,0,0.0091,0.0091,0.009,0.0039,0.0039,0.0038,0.0038,-0.003,-0.0031,-0.0032,0,0,0,0,0,0,0,0,0,0,0,0,0,0.0099,0.01,0.0131,0.0131,0.0131,0.0091,0.0091,0.009,0.0039,0.0039,0.0038,0.0037,-0.003,-0.0031,-0.0033,0,0,0,0,0,0,0,0,0,0,0,0,0,0.0089,0.01,0.0131,0.0103,0.01,0.0091,0.009,0.0089,0.004,0.0039,0.0038,0.0037,-0.0029,-0.0031,-0.0033,-0.0028,0,0,-0.0039,-0.0039,0,0,0,0,0,0,0,0,0.009,0.009,0.0107,0.0105,0.0102,0.0072,0.0054,0.005,0.004,0.006,0.0038,0.0037,0.0004,-0.0001,-0.001,-0.0031,-0.0034,-0.0039,-0.004,-0.0041,-0.0041,0,0,0,0,0,0,0,0.009,0.0091,0.0112,0.0107,0.0104,0.007,0.0068,0.0053,0.0034,0.0058,0.0055,0.0055,0.0002,-0.0008,-0.0012,-0.0035,-0.0039,-0.004,-0.0042,-0.0042,-0.0087,-0.0087,0,0,0,0,0,0,0.0106,0.0092,0.0114,0.0112,0.0096,0.0072,0.0069,0.008,0.0035,0.0028,0.0056,0.0053,-0.0004,-0.001,-0.0014,-0.0036,-0.0041,-0.0043,-0.0044,-0.0087,-0.0087,-0.0087,0,0,0,0,0,0,0.0105,0.0108,0.0115,0.0102,0.0101,0.0074,0.0086,0.008,0.0071,0.0034,0.0026,0.0054,-0.0005,-0.0012,-0.0039,-0.0038,-0.0043,-0.0045,-0.0087,-0.0087,-0.0087,-0.0062,0,0,0,0,0,0,0.0105,0.0109,0.0113,0.0104,0.0103,0.0125,0.0087,0.008,0.0074,0.007,0.003,0.0023,-0.0006,-0.0036,-0.0041,-0.0041,-0.0047,-0.0087,-0.0087,-0.0087,-0.0063,-0.0062,-0.006,0,0,0,0,0,0.0104,0.0137,0.0114,0.0116,0.0113,0.0126,0.0123,0.0097,0.0075,0.0084,0.0038,0.0024,-0.004,-0.0038,-0.0044,-0.0044,-0.0087,-0.0087,-0.0087,-0.0064,-0.0062,-0.006,0,0,0,0,0,0,0.0131,0.0135,0.0109,0.0141,0.0133,0.0119,0.0125,0.0105,0.0077,0.0065,0.0022,0.0012,-0.0015,-0.0028,-0.0025,-0.0057,-0.0064,-0.0066,-0.0045,-0.0043,-0.0042,-0.0032,-0.0048,0,0,0,0,0,0.0137,0.0164,0.0148,0.0175,0.0168,0.0142,0.014,0.0125,0.0104,0.009,0.0056,0.0018,-0.0018,-0.003,-0.006,-0.007,-0.0084,-0.0073,-0.0071,-0.007,-0.0067,-0.0071,-0.0069,-0.0088,-0.0088,-0.0088,0,0,0.0169,0.0163,0.0185,0.0181,0.0167,0.0175,0.0139,0.0149,0.0138,0.0088,0.006,0.0022,-0.0021,-0.0047,-0.0058,-0.0057,-0.0077,-0.007,-0.0069,-0.0066,-0.0071,-0.0069,-0.0067,-0.0088,-0.0088,-0.0088,0,0,0.0233,0.0222,0.0253,0.0249,0.0231,0.021,0.0216,0.0194,0.0161,0.013,0.0084,0.0047,0.0001,-0.0032,-0.0055,-0.0058,-0.0074,-0.0062,-0.0042,-0.0046,-0.0045,-0.0043,-0.0079,-0.0081,-0.0055,-0.0055,-0.0055,0,0.0244,0.029,0.0266,0.028,0.0275,0.023,0.0246,0.0215,0.0183,0.0143,0.0124,0.0043,0.0004,-0.0029,-0.0042,-0.0055,-0.0066,-0.0046,-0.0043,-0.0042,-0.0041,-0.0078,-0.008,-0.0054,-0.0054,-0.0055,-0.0055,0,0.0331,0.0352,0.0373,0.0365,0.0352,0.0374,0.0317,0.0288,0.0231,0.0183,0.0125,0.0076,0.0035,0.0011,-0.0026,-0.0035,-0.005,-0.0045,-0.0045,-0.0038,-0.0078,-0.0081,-0.0053,-0.0053,-0.0053,-0.0054,0,0,0.0389,0.0421,0.0427,0.0421,0.0398,0.0392,0.0359,0.0302,0.0272,0.0211,0.0176,0.0095,0.0072,0.0045,0.0017,-0.0003,-0.0027,-0.0019,-0.0019,-0.005,-0.0054,-0.0069,-0.0074,-0.0011,-0.0011,-0.0011,-0.0092,0,0.0448,0.0498,0.0491,0.0516,0.0529,0.0462,0.0435,0.0367,0.0298,0.0253,0.0172,0.0142,0.0088,0.0088,0.0055,-0.0003,-0.0029,-0.0007,-0.006,-0.0062,-0.0072,-0.0076,-0.001,-0.0094,-0.0095,-0.0096,-0.0096,0,0.051,0.0546,0.0594,0.0568,0.0562,0.056,0.0483,0.0459,0.0368,0.0313,0.0266,0.022,0.0171,0.0146,0.0052,0.0073,0.0013,-0.0039,-0.0042,-0.0064,-0.0082,-0.0099,-0.0102,-0.0101,-0.0101,-0.01,-0.01,0,0.0544,0.0583,0.062,0.0627,0.0618,0.0592,0.0558,0.0475,0.045,0.0384,0.0369,0.0294,0.0279,0.0201,0.0077,0.0079,-0.0031,-0.0034,-0.0113,-0.0116,-0.0088,-0.0089,-0.0089,-0.0089,-0.0088,-0.0088,-0.0088,0,0.0567,0.0596,0.0646,0.0678,0.07,0.0647,0.0648,0.0584,0.0542,0.0528,0.0436,0.0421,0.0298,0.0213,0.0102,-0.0024,-0.0006,-0.0115,-0.013,-0.0081,-0.0079,-0.0092,-0.0092,-0.0091,-0.0091,-0.009,-0.0089,0,0.054,0.0603,0.0673,0.0716,0.0727,0.0733,0.0727,0.0734,0.0668,0.0663,0.0658,0.0524,0.0404,0.0261,0.0114,0.0018,-0.0102,-0.0149,-0.0111,-0.0123,-0.0195,-0.0193,-0.0236,-0.0237,-0.0238,-0.0239,-0.0239,0,0.0513,0.0562,0.0708,0.0788,0.0807,0.0836,0.0872,0.0816,0.0796,0.072,0.07,0.0598,0.05,0.0265,0.0105,-0.0104,-0.0133,-0.0199,-0.0184,-0.0196,-0.0207,-0.0203,-0.0199,-0.0241,-0.0241,-0.0241,-0.0242,0,0.0479,0.0564,0.0629,0.0799,0.0887,0.0972,0.0971,0.095,0.0884,0.088,0.0753,0.0626,0.0472,0.0269,0.0103,-0.0048,-0.0156,-0.0209,-0.0208,-0.0194,-0.0202,-0.0212,-0.0207,-0.0245,-0.0244,-0.0244,-0.0244,0,0.0455,0.0512,0.0645,0.0773,0.0928,0.1014,0.1017,0.0974,0.0949,0.0825,0.0802,0.0634,0.0548,0.0296,0.014,-0.0009,-0.0044,-0.0086,-0.0092,-0.009,-0.0027,-0.0015,-0.0013,0,0,0,0,0,0.0436,0.0512,0.061,0.0766,0.0917,0.0999,0.1046,0.1026,0.0971,0.0908,0.0836,0.0697,0.0456,0.0325,0.0177,0.0103,-0.0087,-0.0077,-0.0141,-0.0262,-0.0258,-0.0211,0,0,0,0,0,0,0.0437,0.0532,0.0584,0.0736,0.0837,0.0968,0.1016,0.0982,0.0887,0.0838,0.0701,0.0677,0.0423,0.0563,0.0186,0.0137,0.0076,-0.0181,-0.0184,-0.0264,-0.0261,-0.0258,-0.0207,0,0,0,0,0]}]]